GEFSNGP_con_maxscp_360.txt.gz
SCP
0 0 0 0 1 1 1 1 1 1 1 1 1 1 2 2 3 4 5 7 8 8 7 6 6 6 7 6 5 3 3 3 3 3 5 5 4 3 2 2 2 2 2 3
0 0 0 0 0 1 1 1 1 1 1 2 2 2 3 3 4 5 6 7 7 7 6 6 6 7 7 6 5 3 3 3 3 4 4 4 3 2 2 2 2 2 2 2
0 0 0 0 0 1 1 2 1 1 2 2 2 3 3 4 5 5 6 5 5 6 6 6 6 7 7 7 5 3 3 3 3 4 4 3 2 2 2 1 2 2 2 2
0 0 0 0 0 1 2 2 2 2 2 3 4 4 4 4 4 5 4 4 5 6 7 7 6 7 8 7 5 3 3 3 4 4 3 3 2 2 1 1 2 2 2 3
0 0 0 0 1 1 2 3 3 4 5 6 6 6 4 3 3 4 4 5 5 6 8 8 8 8 8 7 5 3 3 8 12 8 3 2 2 1 1 1 1 2 2 2
0 0 0 0 1 1 2 2 4 7 8 8 7 5 4 3 3 4 5 6 6 7 9 10 10 9 8 7 6 5 4 12 20 11 3 2 2 2 2 2 2 2 2 2
0 0 0 1 1 1 1 2 4 7 9 7 5 3 2 2 3 4 6 6 7 8 9 10 10 9 8 7 7 6 5 9 12 8 3 3 2 2 3 3 2 2 2 2
1 1 1 1 1 1 1 1 3 6 5 4 3 2 3 3 4 5 6 6 6 7 8 10 10 9 7 6 6 6 5 4 4 3 3 3 3 3 3 3 3 2 2 2
1 1 1 1 1 1 1 1 2 3 3 3 3 4 4 5 6 7 6 6 6 6 8 9 9 8 6 5 5 5 5 5 4 4 3 3 3 3 3 3 3 2 2 2
1 1 1 1 1 1 2 2 2 3 3 3 4 4 5 6 7 7 7 6 6 6 7 7 7 6 5 5 6 6 5 5 5 4 4 3 3 3 3 3 2 3 3 3
1 1 1 1 1 2 2 3 3 3 4 4 4 4 5 6 6 6 6 5 5 5 5 5 5 4 4 5 7 7 6 4 4 4 4 4 3 3 2 2 2 2 3 4
1 1 1 1 2 2 3 3 3 4 5 5 5 5 5 5 5 5 5 4 4 4 4 4 4 4 4 6 8 8 7 5 3 4 5 4 4 2 1 1 1 1 2 2
1 1 1 2 2 2 2 3 3 4 5 6 6 6 6 6 5 5 4 4 3 3 3 3 3 3 4 5 7 8 7 4 2 3 4 5 4 3 1 0 0 0 0 0
1 2 2 3 2 2 2 2 4 5 7 8 8 7 7 6 6 5 5 4 4 3 3 2 2 3 3 4 6 7 6 3 2 2 3 4 4 4 2 0 0 0 0 0
1 2 4 4 3 2 3 4 6 7 8 9 8 8 7 7 7 7 7 6 6 5 3 3 3 3 2 3 4 6 5 2 1 2 2 3 3 3 1 0 0 0 0 0
2 3 4 4 3 3 4 6 8 9 10 9 9 8 8 9 10 10 9 8 7 6 4 3 3 3 3 3 4 5 4 2 1 2 2 2 2 2 1 0 0 0 0 0
3 3 4 4 4 4 5 7 9 11 11 11 10 10 11 12 13 13 11 9 7 5 4 4 4 3 3 3 3 4 3 2 2 2 2 2 2 2 1 1 0 1 1 0
4 4 4 4 4 4 4 5 7 9 10 10 11 11 12 13 15 14 12 9 6 4 4 4 4 4 3 3 3 4 3 3 2 2 2 2 2 2 1 1 1 1 1 0
5 5 5 4 3 3 3 3 4 5 6 7 8 9 11 13 15 14 12 9 6 4 3 3 3 4 4 4 3 4 3 3 3 2 2 1 1 1 1 1 1 1 1 0
6 6 5 4 3 2 2 2 3 3 4 4 5 7 9 11 12 11 10 7 4 3 2 3 3 3 4 4 4 4 3 3 3 2 2 1 1 1 1 1 1 1 1 0
5 5 4 4 3 2 2 2 2 2 3 3 4 6 7 8 8 7 6 5 3 2 2 3 3 4 5 5 4 4 3 3 3 2 2 1 1 1 1 1 1 1 0 0
3 4 4 3 3 3 2 2 2 2 2 3 3 4 5 4 4 4 4 3 2 2 3 4 4 4 5 5 5 5 4 3 3 2 2 1 1 1 0 0 0 0 0 0
4 4 4 4 3 3 2 2 3 3 2 2 2 3 3 3 3 3 3 2 2 2 3 4 4 4 4 4 6 6 5 4 3 3 2 1 1 0 0 0 0 0 0 0
5 5 4 4 3 3 2 3 3 3 2 2 1 1 1 1 2 2 2 2 2 2 2 3 3 2 2 4 6 6 5 4 4 3 2 1 1 0 0 0 0 0 0 0
5 4 4 3 3 2 2 2 3 2 2 1 1 1 1 2 2 2 2 2 2 2 1 1 1 1 1 3 5 5 5 4 3 3 2 1 1 1 0 0 0 0 0 0
4 3 3 3 2 2 2 2 1 1 1 1 2 2 2 3 3 3 3 2 2 2 1 1 1 0 1 2 3 4 3 2 2 2 2 1 1 1 1 1 1 1 0 0
3 3 3 2 2 2 1 1 1 1 1 1 2 2 2 3 4 5 4 3 2 2 2 2 1 0 1 1 2 2 2 1 1 1 1 1 1 1 1 1 1 1 1 0

GEFSNGP_con_maxscp_366.txt.gz
SCP
0 0 1 1 1 0 0 0 0 1 1 1 1 1 1 1 2 3 4 5 5 4 3 2 2 3 3 4 4 5 4 3 3 3 2 2 2 2 2 2 2 2 2 2
1 1 1 1 1 1 1 1 1 1 1 1 1 1 1 2 3 4 5 5 4 3 3 3 3 3 4 5 5 5 4 3 3 3 2 2 2 2 2 2 2 2 2 2
0 0 0 0 1 1 1 1 1 1 1 1 1 1 2 3 4 4 4 3 3 2 2 2 3 4 5 6 5 5 5 4 3 3 2 2 2 2 1 1 1 1 1 2
0 0 0 0 0 1 1 2 2 2 2 2 2 3 4 5 4 3 3 2 2 2 2 2 4 5 6 5 4 4 4 3 2 2 2 2 2 2 1 1 1 1 2 2
0 0 0 0 0 0 1 1 2 2 2 2 3 4 5 5 4 3 3 2 2 2 3 3 4 5 4 3 3 3 3 2 2 2 2 2 2 2 2 1 1 1 2 2
0 0 0 0 0 0 1 1 1 1 2 2 3 4 4 4 3 3 3 3 2 2 3 4 4 3 3 2 2 3 2 2 2 2 2 2 2 2 2 1 1 1 1 1
0 0 0 0 0 0 1 1 1 1 2 2 2 3 3 2 2 2 2 3 2 2 2 3 3 2 2 3 4 4 3 2 2 2 2 2 2 2 2 2 2 2 1 1
0 0 0 0 1 0 0 1 1 2 2 2 2 2 2 2 1 1 1 2 2 2 2 2 2 2 3 3 4 4 3 2 2 2 2 2 2 2 2 2 2 2 1 1
1 0 0 1 1 1 1 1 1 2 2 2 2 2 2 1 1 1 1 1 2 2 2 2 2 2 2 3 3 3 3 2 3 3 3 3 3 2 2 2 2 2 1 1
1 1 0 1 1 1 1 1 2 2 2 2 2 3 2 1 1 1 2 1 2 2 2 1 1 1 2 2 2 2 2 3 4 4 4 4 3 3 2 2 2 1 1 1
1 1 0 1 1 1 1 1 2 2 2 2 2 2 1 1 2 2 2 2 2 2 2 1 1 1 1 2 2 2 3 4 4 5 5 5 3 2 2 2 1 1 1 1
1 0 0 0 1 1 1 1 1 1 1 2 2 1 2 2 3 2 2 2 2 2 2 1 1 1 1 1 2 2 3 4 4 5 5 5 3 2 1 1 1 0 1 1
0 0 0 0 1 1 1 1 1 1 2 1 1 1 2 3 3 3 3 3 3 2 2 2 1 1 1 1 1 2 2 3 3 3 4 4 3 3 2 1 0 0 0 0
0 0 0 1 2 2 2 1 1 2 2 2 1 2 3 3 3 3 3 4 3 3 3 2 2 1 1 1 1 1 2 2 2 2 3 3 3 3 2 2 1 0 0 0
0 0 1 2 3 3 3 2 2 2 3 3 2 2 3 3 3 3 3 4 4 3 3 3 2 2 2 1 1 1 1 2 2 2 2 3 3 2 2 2 1 1 0 0
0 1 1 2 3 3 3 4 4 4 3 3 3 3 3 3 3 3 4 4 4 4 4 4 3 2 2 1 1 1 1 2 2 2 2 2 2 2 2 2 1 1 0 0
0 1 2 2 3 3 3 4 5 5 4 3 3 3 3 3 4 4 4 5 5 5 5 4 3 2 2 1 1 1 2 2 2 2 2 2 2 3 3 2 2 1 1 0
1 1 1 2 2 2 2 3 4 5 4 4 3 3 3 3 3 4 4 5 6 6 5 4 3 2 1 1 1 2 3 3 2 2 2 2 2 3 3 3 2 1 1 1
1 1 1 1 2 2 2 2 2 3 4 3 3 3 2 2 3 3 4 6 7 7 5 3 2 1 1 1 1 2 3 3 2 2 2 2 2 3 3 2 2 1 1 1
1 1 1 1 2 2 1 1 1 2 2 2 2 2 2 2 2 2 3 5 6 5 3 2 2 2 1 1 1 2 2 2 1 1 2 2 2 2 2 2 2 1 1 1
1 1 1 1 1 1 1 1 1 1 1 1 1 1 1 1 1 2 2 3 3 2 1 1 2 2 2 1 1 2 2 2 2 2 2 2 2 2 2 2 2 1 1 1
2 2 2 2 1 1 1 1 1 1 1 1 1 1 1 1 1 1 1 2 1 1 1 1 2 2 2 2 2 2 3 2 2 2 2 3 2 2 2 2 2 1 1 1
2 2 2 2 2 1 1 1 0 0 0 0 0 1 1 1 1 1 1 1 0 0 1 1 1 2 2 2 2 3 3 3 3 3 3 3 3 3 2 2 2 1 1 1
3 3 2 2 1 1 1 1 0 0 0 0 0 1 1 1 1 1 1 0 0 0 1 1 1 1 1 2 2 2 3 4 4 4 4 4 4 3 3 2 2 2 1 1
2 2 2 2 1 1 1 0 0 0 0 0 1 1 1 1 1 1 1 1 1 1 1 1 0 0 0 1 1 2 3 3 4 4 4 4 4 3 3 3 2 2 1 1
2 2 2 1 1 1 0 0 0 0 0 0 0 0 0 0 1 1 1 1 1 1 1 0 0 0 0 1 1 1 2 2 3 3 3 3 3 3 3 3 3 2 1 1
2 2 2 1 1 0 0 0 0 0 0 0 0 0 0 0 0 0 1 1 1 0 0 0 0 0 0 0 1 1 1 2 2 2 2 2 2 3 3 3 3 2 2 1

GEFSNGP_con_maxscp_372.txt.gz
SCP
0 0 0 0 0 0 1 1 1 1 3 3 3 3 3 3 3 3 3 4 4 5 5 5 4 3 3 4 5 6 8 9 8 8 8 8 8 8 7 7 6 6 5 5
0 0 0 0 0 0 1 1 1 1 2 3 3 3 3 2 2 3 3 4 5 5 5 5 4 4 4 5 7 8 10 11 10 9 9 9 8 7 8 8 7 7 6 6
0 0 0 0 0 1 1 1 1 1 2 2 2 2 3 3 3 3 4 4 5 6 6 5 4 4 4 6 8 10 11 13 12 10 11 10 8 8 10 11 10 9 8 7
0 0 0 0 1 1 1 1 1 1 2 2 3 3 3 4 4 4 5 5 6 7 7 6 4 3 4 4 6 8 11 13 12 11 12 12 9 9 12 12 11 9 7 6
0 0 0 1 1 1 1 1 1 1 2 3 4 4 4 4 4 5 5 6 7 7 7 6 4 3 3 3 4 5 8 10 11 11 12 12 10 9 10 10 9 7 5 5
1 1 1 1 1 1 1 1 1 2 3 3 4 3 4 4 4 4 5 5 6 6 6 5 4 3 3 3 3 3 4 6 8 9 11 10 8 6 6 7 7 6 6 6
1 1 1 1 1 1 1 2 2 2 3 3 3 3 3 4 4 4 4 5 5 4 4 4 4 3 4 4 3 3 3 3 5 6 7 7 5 4 4 5 5 6 6 7
1 1 1 1 1 1 2 2 2 2 2 2 3 4 4 4 3 4 4 4 4 4 4 4 4 4 3 3 3 3 3 3 4 4 4 4 4 4 4 5 5 5 6 6
1 2 2 2 2 2 2 2 2 3 3 3 3 4 4 3 3 3 4 3 3 3 3 3 3 3 3 2 3 3 3 3 3 4 3 3 3 4 5 5 6 6 6 5
2 2 2 2 2 2 2 2 2 3 3 4 3 3 3 3 2 3 3 3 3 3 3 3 3 3 2 2 3 3 3 3 3 3 3 3 3 4 5 6 7 8 7 7
3 2 2 2 2 2 2 2 2 3 3 3 3 3 3 2 2 3 3 4 3 3 3 3 3 3 3 3 3 3 3 2 2 2 2 2 3 4 5 6 6 7 6 6
3 3 2 2 2 2 2 3 3 3 3 2 3 3 3 2 2 3 3 4 4 4 3 3 3 3 3 3 3 3 3 2 2 2 2 2 2 3 4 4 4 4 3 3
3 3 2 2 2 2 3 3 4 3 3 3 4 3 2 2 2 3 4 4 4 4 4 3 3 3 3 3 3 3 3 2 2 2 2 2 2 3 4 4 3 2 1 1
2 2 2 2 2 2 3 4 4 4 3 4 4 3 2 2 3 3 4 4 5 5 4 4 4 4 4 5 5 5 4 3 2 2 2 2 2 3 4 5 5 5 3 2
1 2 2 2 2 2 4 5 4 4 4 5 4 3 2 2 3 3 4 4 5 5 5 4 5 5 6 7 8 7 5 3 2 2 2 2 2 2 4 6 7 8 7 6
1 1 2 2 2 2 3 4 4 4 5 6 5 4 2 2 2 3 4 4 4 5 5 5 6 7 8 9 9 6 4 2 1 2 2 2 2 2 3 4 6 8 9 9
1 1 2 2 2 2 2 2 3 5 7 8 7 5 4 3 3 3 3 3 3 3 4 5 6 7 7 7 6 4 3 2 1 1 2 2 2 2 2 3 4 6 7 8
1 2 2 2 2 1 1 2 3 5 8 10 8 7 6 5 4 3 3 3 3 2 2 3 4 4 4 3 2 2 2 2 1 1 1 1 2 2 2 2 3 4 6 6
1 2 2 1 1 1 1 2 3 5 8 10 11 9 8 7 5 4 3 3 3 2 2 2 2 2 2 1 1 2 2 2 2 2 2 2 2 2 2 3 3 4 5 5
1 1 1 1 1 1 1 2 3 5 6 9 11 12 10 8 6 4 4 4 3 3 2 2 2 2 2 2 2 2 2 2 2 3 3 3 3 3 3 3 4 5 5 6
1 1 1 1 1 1 1 2 3 4 4 5 8 11 13 11 8 6 4 4 4 3 2 2 2 2 2 2 2 3 3 3 3 4 4 4 4 4 4 4 5 6 6 6
1 1 1 1 1 2 2 2 3 3 2 3 5 7 11 12 11 8 6 5 3 2 2 2 2 2 2 2 2 2 3 3 4 4 4 5 5 5 5 5 5 6 7 7
1 1 1 2 2 3 3 3 3 2 2 2 3 4 6 8 9 8 6 4 3 2 3 3 2 2 2 2 2 2 3 3 4 5 5 5 6 6 6 6 6 6 7 7
1 1 2 2 2 3 4 3 2 2 2 2 2 2 3 4 5 5 4 2 2 3 4 3 2 2 2 2 2 3 3 3 4 4 5 6 6 7 7 7 7 7 7 6
1 1 2 2 2 3 3 3 2 2 2 2 2 2 2 2 3 3 2 2 2 3 4 3 2 2 3 3 3 3 3 4 4 4 5 5 6 7 7 7 6 6 5 5
1 2 2 3 2 2 2 2 2 2 2 2 2 2 2 2 2 2 2 2 2 2 3 3 3 3 3 4 3 4 4 4 5 5 5 5 6 6 6 5 4 3 3 2
1 2 3 4 3 2 2 1 1 2 3 3 2 2 2 2 2 2 2 3 2 2 2 2 3 3 3 3 4 4 4 5 5 5 5 5 5 5 5 4 3 2 1 1

GEFSNGP_con_maxscp_378.txt.gz
SCP
0 0 0 0 0 0 0 1 1 2 3 4 5 6 6 6 5 6 6 7 8 8 8 7 9 12 14 16 14 10 9 9 9 9 8 8 8 8 8 8 8 9 9 10
0 0 0 0 0 0 0 1 2 3 4 6 6 6 6 5 5 6 6 6 8 9 8 7 9 13 15 14 11 10 10 10 10 10 10 9 9 9 10 10 10 10 11 12
0 0 0 0 0 0 0 1 2 4 5 6 6 6 6 5 6 6 7 7 8 10 9 7 8 10 12 10 9 9 10 10 11 11 12 12 11 10 11 12 12 12 12 13
0 0 0 0 0 1 1 2 3 4 4 5 5 6 7 7 7 7 8 9 10 10 10 8 7 8 8 7 7 8 9 9 9 10 12 13 12 11 11 10 10 11 13 14
1 0 0 1 1 1 2 3 4 4 4 4 4 5 6 8 9 9 10 11 12 11 11 10 10 9 8 7 6 7 8 8 8 8 9 10 11 11 10 9 8 11 15 18
1 1 1 1 1 1 3 4 4 4 4 4 5 5 6 8 10 10 10 11 12 11 12 12 11 10 9 7 7 9 11 10 8 7 7 8 9 10 10 9 9 11 16 19
1 1 1 1 1 2 3 4 4 5 5 5 6 7 8 8 8 8 8 8 8 8 10 11 10 9 8 8 9 12 13 11 8 7 7 7 8 8 9 9 9 10 14 16
1 2 2 2 2 2 4 5 5 5 5 6 7 7 7 7 6 6 5 5 5 5 6 8 8 8 8 8 11 12 11 9 8 8 7 7 7 7 7 8 7 8 10 12
2 2 3 3 3 3 4 4 4 4 6 7 7 7 7 8 8 6 4 4 5 5 5 5 6 7 7 8 9 9 8 7 8 8 8 8 8 7 7 7 7 8 8 9
3 3 3 3 3 3 4 4 3 4 7 9 7 6 6 9 9 7 4 5 5 5 4 5 6 6 6 7 7 7 7 7 7 7 8 8 8 8 7 7 8 8 7 6
4 4 4 3 3 3 4 4 3 5 8 8 6 5 5 7 8 7 5 5 6 5 5 5 6 7 7 7 7 7 6 6 6 7 7 7 8 7 7 6 6 5 5 4
3 4 3 3 3 3 4 3 3 6 8 8 6 5 5 5 6 6 6 6 7 6 6 6 7 7 8 9 9 8 7 6 6 6 6 6 7 7 6 5 3 3 3 3
3 3 3 2 3 4 4 3 4 7 9 8 6 5 5 4 4 5 5 6 7 7 7 7 8 9 10 12 12 11 8 7 7 6 6 5 6 6 5 4 3 2 2 2
3 3 3 3 4 4 4 3 4 7 8 7 6 5 4 4 4 4 4 5 6 7 7 8 9 11 13 15 15 13 10 8 8 7 5 4 5 5 5 5 4 3 2 1
2 2 2 3 4 4 3 2 4 5 6 6 6 5 5 7 6 5 4 5 7 7 7 9 12 15 18 18 16 13 11 9 8 5 4 4 4 4 4 4 4 4 3 2
2 2 2 2 3 2 2 2 2 4 6 7 6 6 7 9 8 6 6 6 7 7 7 9 14 19 20 18 14 11 9 7 5 3 3 3 3 3 4 4 4 4 3 2
2 2 2 2 2 2 2 2 2 3 5 6 7 7 8 9 9 8 7 7 7 6 6 9 14 18 18 15 11 9 6 4 3 2 2 3 3 3 3 3 3 3 3 2
1 2 2 2 2 2 3 3 3 3 3 4 6 7 8 9 9 9 8 7 7 6 7 8 10 12 12 10 8 6 4 3 2 2 2 3 3 3 3 3 2 3 3 2
1 1 2 2 2 3 4 5 4 3 2 3 5 6 8 8 9 9 9 8 7 6 6 6 6 7 7 5 4 3 3 2 2 2 3 3 3 3 3 2 2 2 2 2
1 1 1 2 2 3 5 6 5 3 3 4 5 6 7 7 7 8 8 8 7 7 6 4 4 5 4 3 3 3 2 2 2 3 4 4 4 3 3 3 2 2 2 3
1 1 1 2 2 3 6 6 4 2 3 4 4 5 7 8 8 8 7 7 7 7 6 5 5 5 4 3 3 3 3 2 2 3 4 4 3 3 3 3 3 3 3 4
1 1 1 2 3 4 5 5 3 2 3 3 4 5 7 9 8 8 8 7 6 5 5 4 4 3 3 3 3 3 2 2 2 2 3 3 3 4 4 4 5 5 6 7
3 3 3 3 3 3 4 3 2 2 2 3 4 6 8 8 7 7 7 7 5 4 3 3 2 2 2 2 3 3 3 2 2 3 4 4 4 4 5 5 6 6 7 7
7 7 5 4 3 3 3 2 2 3 3 4 6 7 8 7 6 4 4 5 4 4 4 3 2 1 1 2 3 3 3 3 4 4 5 4 4 4 4 5 5 5 4 4
10 9 7 5 4 3 3 3 3 3 3 3 5 6 6 6 5 4 4 4 5 5 5 4 2 2 2 4 4 5 4 3 4 4 4 3 3 3 3 3 3 4 4 4
10 8 7 5 3 3 3 3 3 3 2 2 2 3 4 4 5 5 5 5 6 7 7 6 4 4 4 5 6 5 5 3 3 3 2 2 2 2 2 3 4 5 6 7
8 7 6 4 2 2 2 2 2 2 1 1 1 2 2 3 4 5 5 6 7 8 7 7 6 6 5 6 6 6 5 4 3 2 2 2 2 2 2 3 5 6 6 6

GEFSNGP_con_maxscp_384.txt.gz
SCP
0 0 0 0 0 0 0 0 0 1 2 3 5 6 7 7 7 7 7 8 7 6 6 6 8 8 7 5 3 3 4 6 6 7 6 5 4 4 4 5 4 4 4 4
0 0 0 0 1 1 1 1 1 1 3 4 5 7 8 8 7 6 6 6 6 6 6 5 6 7 7 5 5 5 6 6 6 6 6 5 5 4 5 4 4 4 4 4
1 1 0 0 1 2 2 2 2 3 4 5 7 8 9 10 9 7 5 5 5 6 7 7 7 8 8 8 8 8 6 5 5 5 5 5 5 5 5 5 5 4 4 3
1 1 1 0 1 2 3 4 4 5 5 6 7 7 8 10 9 7 5 4 5 7 8 9 9 8 9 10 9 8 6 4 4 4 4 4 5 5 6 6 6 5 4 3
0 1 1 1 1 2 3 5 6 6 6 6 5 5 6 7 7 5 4 5 6 6 7 7 7 6 7 7 7 5 4 4 3 3 3 3 3 4 5 6 6 5 3 3
0 1 1 1 1 1 3 4 5 5 4 4 4 5 5 4 4 4 4 6 6 5 4 4 4 4 4 3 3 3 3 3 3 3 3 2 2 3 4 5 5 4 3 2
0 1 1 1 1 1 2 2 3 3 3 3 3 4 4 4 3 3 5 7 8 6 3 2 2 3 3 2 2 3 3 2 2 2 2 2 2 3 3 3 4 4 3 2
1 1 1 1 1 1 1 2 2 3 3 3 3 3 3 2 2 3 5 8 8 6 4 2 2 2 3 2 3 4 4 3 3 2 2 3 3 3 2 2 3 3 3 2
1 1 1 1 1 2 2 2 3 4 4 3 2 2 2 2 2 3 5 7 8 7 5 3 2 1 1 2 2 4 5 4 3 3 3 3 3 3 2 2 2 3 2 2
1 1 1 1 1 2 2 3 4 4 4 3 3 3 3 3 4 4 5 6 7 7 6 4 2 2 1 1 2 3 4 4 3 3 2 2 2 2 2 2 2 2 2 2
1 1 1 1 1 1 2 3 4 4 4 3 3 3 3 4 5 6 5 4 5 6 6 5 3 2 2 2 2 2 2 3 3 2 2 1 1 2 2 2 2 2 2 2
1 1 1 1 1 1 2 3 4 5 5 4 4 3 3 3 5 6 5 3 4 5 6 5 4 3 3 3 3 2 2 3 3 3 2 1 1 1 1 1 1 1 1 1
1 1 1 1 1 1 2 3 3 4 5 5 5 4 3 3 3 4 5 3 3 4 5 5 5 4 4 4 4 4 4 4 5 5 3 2 1 1 1 1 0 0 0 0
1 1 1 1 0 1 1 1 2 3 4 5 5 5 5 5 4 4 3 3 2 3 4 5 5 5 5 6 7 6 6 7 8 7 5 2 1 1 1 1 0 0 0 0
1 1 1 0 0 0 0 1 1 2 3 4 4 4 5 5 5 5 4 3 3 2 3 4 5 5 6 9 11 11 10 11 11 10 6 3 1 1 1 1 0 0 0 0
1 1 0 0 0 1 1 1 1 1 1 2 3 4 4 4 4 5 6 5 4 4 3 4 5 5 8 13 15 15 14 13 12 10 6 2 1 0 0 1 1 1 1 0
0 0 0 0 0 1 1 1 1 1 1 1 2 3 4 4 4 5 6 7 7 6 5 4 4 6 10 15 17 16 14 12 10 8 4 2 1 0 0 1 1 1 1 1
0 0 0 0 0 1 1 1 1 1 1 1 1 2 3 4 5 6 6 7 8 7 6 4 4 6 9 13 14 12 10 8 6 5 3 1 1 1 1 1 1 1 1 1
0 0 0 0 0 0 1 1 1 1 1 1 1 1 1 2 4 6 7 6 6 5 5 4 4 5 6 7 7 6 5 4 3 2 2 1 1 1 1 1 1 1 1 1
0 0 0 0 0 0 0 1 1 1 1 1 1 1 0 1 2 3 5 6 5 4 3 3 3 3 4 4 3 3 3 3 2 2 2 2 1 1 1 1 1 1 1 1
0 0 0 0 0 0 0 0 1 1 1 1 1 1 0 0 1 1 3 5 5 5 4 3 3 3 4 4 3 4 4 4 3 3 2 2 2 1 1 1 1 1 2 2
0 0 0 0 0 0 0 0 1 1 1 1 1 1 1 0 1 1 2 3 4 5 5 4 3 3 4 4 4 4 4 4 4 3 2 2 1 1 1 1 1 1 2 2
0 1 1 1 1 1 1 1 0 0 1 1 1 1 1 0 1 1 2 2 3 4 6 5 4 3 3 4 4 4 4 3 3 2 2 1 1 1 1 1 1 1 1 1
1 1 1 1 1 1 1 1 0 0 1 1 1 1 1 1 1 2 2 2 2 3 5 5 4 3 2 3 3 3 3 2 1 1 1 1 1 1 1 1 1 1 0 0
1 1 1 1 1 1 1 1 1 1 1 1 1 1 1 1 2 2 2 2 1 1 3 4 3 2 3 3 3 3 2 1 1 1 1 1 1 1 1 1 1 0 0 0
1 1 1 1 1 1 1 1 1 1 1 1 1 1 1 1 2 2 2 2 1 1 1 2 2 2 4 5 4 4 3 2 2 1 1 1 1 1 1 1 1 0 0 0
2 2 1 2 2 2 2 2 1 1 1 1 1 1 1 2 2 2 2 2 2 1 1 2 2 3 4 6 6 5 4 3 3 2 1 1 2 1 1 1 1 1 1 0